| time (UTC) | temp F | wind direction | speed MPH | gust MPH | rain 1hr in | rain 24hr in | rain mn in | humidity % | barometer mb |
| 20260506072118 | 47 | 131 | 3.0 | 6.0 | 0.00 | 0.00 | 0.00 | 48 | 1012.6 |
| 20260506071117 | 47 | 77 | 1.0 | 3.0 | 0.00 | 0.00 | 0.00 | 48 | 1012.6 |
| 20260506070118 | 46 | 305 | 3.0 | 6.0 | 0.00 | 0.00 | 0.00 | 51 | 1012.6 |
| 20260506062118 | 44 | 26 | 2.0 | 5.0 | 0.00 | 0.00 | 0.00 | 58 | 1012.4 |
| 20260506061118 | 44 | 252 | 2.0 | 6.0 | 0.00 | 0.00 | 0.00 | 58 | 1012.4 |
| 20260506060118 | 44 | 340 | 2.0 | 4.0 | 0.00 | 0.00 | 0.00 | 60 | 1012.3 |
| 20260506051118 | 41 | 316 | 3.0 | 6.0 | 0.00 | 0.00 | 0.00 | 68 | 1011.8 |
| 20260506050118 | 40 | 113 | 3.0 | 5.0 | 0.00 | 0.00 | 0.00 | 69 | 1011.7 |
| 20260506044119 | 37 | 330 | 4.0 | 6.0 | 0.00 | 0.00 | 0.00 | 78 | 1011.2 |
| 20260506043117 | 37 | 351 | 3.0 | 6.0 | 0.00 | 0.00 | 0.00 | 77 | 1011.2 |
| 20260506042118 | 37 | 346 | 3.0 | 7.0 | 0.00 | 0.00 | 0.00 | 79 | 1011.0 |
| 20260506041117 | 37 | 91 | 2.0 | 6.0 | 0.00 | 0.00 | 0.00 | 79 | 1011.0 |
| 20260506040119 | 37 | 6 | 2.0 | 4.0 | 0.00 | 0.00 | 0.00 | 79 | 1010.9 |
| 20260506035117 | 37 | 345 | 2.0 | 6.0 | 0.00 | 0.00 | 0.00 | 79 | 1010.9 |
| 20260506034140 | 37 | 89 | 2.0 | 5.0 | 0.00 | 0.00 | 0.00 | 78 | 1010.7 |
| 20260506033119 | 37 | 109 | 2.0 | 4.0 | 0.00 | 0.00 | 0.00 | 79 | 1010.6 |
| 20260506032138 | 37 | 71 | 2.0 | 3.0 | 0.00 | 0.00 | 0.00 | 78 | 1010.6 |
| 20260506031117 | 37 | 78 | 2.0 | 4.0 | 0.00 | 0.00 | 0.00 | 78 | 1010.6 |
| 20260506030119 | 37 | 110 | 2.0 | 4.0 | 0.00 | 0.00 | 0.00 | 78 | 1010.5 |
| 20260506025118 | 37 | 117 | 2.0 | 5.0 | 0.00 | 0.00 | 0.00 | 78 | 1010.4 |
| 20260506024119 | 37 | 73 | 2.0 | 3.0 | 0.00 | 0.00 | 0.00 | 78 | 1010.4 |
| 20260506023118 | 36 | 319 | 2.0 | 4.0 | 0.00 | 0.00 | 0.00 | 78 | 1010.3 |
| 20260506022118 | 36 | 349 | 2.0 | 4.0 | 0.00 | 0.00 | 0.00 | 78 | 1010.1 |
| 20260506021118 | 36 | 326 | 2.0 | 5.0 | 0.00 | 0.00 | 0.00 | 78 | 1010.2 |
| 20260506020139 | 36 | 308 | 2.0 | 4.0 | 0.00 | 0.00 | 0.00 | 79 | 1010.1 |
| 20260506015118 | 36 | 290 | 3.0 | 6.0 | 0.00 | 0.00 | 0.00 | 79 | 1010.1 |
| 20260506014118 | 36 | 302 | 2.0 | 5.0 | 0.00 | 0.00 | 0.00 | 79 | 1010.0 |
| 20260506013118 | 36 | 251 | 2.0 | 6.0 | 0.00 | 0.00 | 0.00 | 78 | 1010.0 |
| 20260506012138 | 36 | 301 | 3.0 | 5.0 | 0.00 | 0.00 | 0.00 | 78 | 1010.0 |
| 20260506011118 | 36 | 317 | 2.0 | 4.0 | 0.00 | 0.00 | 0.00 | 77 | 1009.9 |
| 20260506010117 | 37 | 318 | 2.0 | 5.0 | 0.00 | 0.00 | 0.00 | 76 | 1009.9 |
| 20260506005139 | 38 | 331 | 3.0 | 6.0 | 0.00 | 0.00 | 0.00 | 75 | 1009.3 |
| 20260506004118 | 38 | 222 | 2.0 | 4.0 | 0.00 | 0.00 | 0.00 | 76 | 1009.3 |
| 20260506003118 | 38 | 20 | 2.0 | 6.0 | 0.00 | 0.00 | 0.00 | 75 | 1009.3 |
| 20260506002239 | 38 | 21 | 2.0 | 4.0 | 0.00 | 0.00 | 0.00 | 74 | 1009.2 |
| 20260506001138 | 38 | 255 | 2.0 | 6.0 | 0.00 | 0.00 | 0.00 | 74 | 1009.2 |
| 20260506000139 | 38 | 187 | 2.0 | 7.0 | 0.00 | 0.00 | 0.00 | 73 | 1009.2 |
| 20260505235118 | 39 | 97 | 2.0 | 5.0 | 0.00 | 0.00 | 0.00 | 73 | 1009.1 |
| 20260505234118 | 39 | 357 | 3.0 | 7.0 | 0.00 | 0.00 | 0.00 | 72 | 1009.1 |
| 20260505233138 | 39 | 289 | 3.0 | 7.0 | 0.00 | 0.00 | 0.00 | 72 | 1008.9 |
| 20260505232158 | 39 | 349 | 3.0 | 11.0 | 0.00 | 0.00 | 0.00 | 71 | 1008.9 |
| 20260505231138 | 39 | 12 | 2.0 | 6.0 | 0.00 | 0.00 | 0.00 | 73 | 1008.7 |
| 20260505230118 | 39 | 331 | 3.0 | 6.0 | 0.00 | 0.00 | 0.00 | 71 | 1008.8 |
| 20260505225117 | 39 | 338 | 3.0 | 5.0 | 0.00 | 0.00 | 0.00 | 71 | 1008.7 |
| 20260505224118 | 40 | 344 | 5.0 | 8.0 | 0.00 | 0.00 | 0.00 | 71 | 1008.7 |
| 20260505223118 | 40 | 327 | 3.0 | 8.0 | 0.00 | 0.00 | 0.00 | 70 | 1008.7 |
| 20260505222119 | 40 | 59 | 3.0 | 8.0 | 0.00 | 0.00 | 0.00 | 70 | 1008.7 |
| 20260505221118 | 40 | 290 | 3.0 | 6.0 | 0.00 | 0.00 | 0.00 | 68 | 1008.6 |
| 20260505220118 | 40 | 330 | 3.0 | 8.0 | 0.00 | 0.00 | 0.00 | 68 | 1008.5 |
| 20260505215118 | 40 | 24 | 3.0 | 7.0 | 0.00 | 0.00 | 0.00 | 68 | 1008.5 |
| 20260505214119 | 41 | 149 | 3.0 | 5.0 | 0.00 | 0.00 | 0.00 | 67 | 1008.4 |
| 20260505213117 | 41 | 100 | 3.0 | 8.0 | 0.00 | 0.00 | 0.00 | 65 | 1008.4 |
| 20260505212119 | 41 | 41 | 2.0 | 5.0 | 0.00 | 0.00 | 0.00 | 65 | 1008.3 |
| 20260505211117 | 41 | 148 | 3.0 | 9.0 | 0.00 | 0.00 | 0.00 | 63 | 1008.2 |
| 20260505210118 | 41 | 256 | 4.0 | 10.0 | 0.00 | 0.00 | 0.00 | 64 | 1008.2 |
| 20260505205157 | 43 | 351 | 4.0 | 8.0 | 0.00 | 0.00 | 0.00 | 57 | 1007.4 |
| 20260505204119 | 43 | 339 | 4.0 | 9.0 | 0.00 | 0.00 | 0.00 | 58 | 1007.3 |
| 20260505203118 | 44 | 342 | 3.0 | 7.0 | 0.00 | 0.00 | 0.00 | 55 | 1007.4 |
| 20260505202119 | 44 | 74 | 2.0 | 5.0 | 0.00 | 0.00 | 0.00 | 54 | 1007.3 |
| 20260505201118 | 44 | 4 | 3.0 | 6.0 | 0.00 | 0.00 | 0.00 | 54 | 1007.2 |
| 20260505200139 | 44 | 104 | 3.0 | 8.0 | 0.00 | 0.00 | 0.00 | 50 | 1007.1 |
| 20260505195138 | 45 | 122 | 3.0 | 6.0 | 0.00 | 0.00 | 0.00 | 47 | 1007.0 |
| 20260505194119 | 45 | 143 | 3.0 | 8.0 | 0.00 | 0.00 | 0.00 | 48 | 1006.8 |
| 20260505193158 | 45 | 72 | 3.0 | 7.0 | 0.00 | 0.00 | 0.00 | 47 | 1007.0 |
| 20260505192118 | 45 | 81 | 4.0 | 7.0 | 0.00 | 0.00 | 0.00 | 48 | 1006.8 |
| 20260505191118 | 46 | 103 | 3.0 | 6.0 | 0.00 | 0.00 | 0.00 | 46 | 1006.8 |
| 20260505190118 | 46 | 111 | 3.0 | 7.0 | 0.00 | 0.00 | 0.00 | 48 | 1006.6 |
| 20260505185118 | 46 | 19 | 4.0 | 9.0 | 0.00 | 0.00 | 0.00 | 51 | 1006.5 |
| 20260505184118 | 46 | 133 | 4.0 | 8.0 | 0.00 | 0.00 | 0.00 | 44 | 1006.3 |
| 20260505183117 | 46 | 111 | 4.0 | 6.0 | 0.00 | 0.00 | 0.00 | 42 | 1006.4 |
| 20260505182139 | 47 | 21 | 4.0 | 9.0 | 0.00 | 0.00 | 0.00 | 43 | 1006.3 |
| 20260505181118 | 47 | 91 | 3.0 | 6.0 | 0.00 | 0.00 | 0.00 | 43 | 1006.2 |
| 20260505180119 | 47 | 53 | 5.0 | 10.0 | 0.00 | 0.00 | 0.00 | 44 | 1006.2 |
| 20260505175117 | 48 | 168 | 4.0 | 9.0 | 0.00 | 0.00 | 0.00 | 45 | 1006.1 |
| 20260505174118 | 48 | 118 | 3.0 | 5.0 | 0.00 | 0.00 | 0.00 | 42 | 1006.1 |
| 20260505173118 | 48 | 150 | 4.0 | 10.0 | 0.00 | 0.00 | 0.00 | 43 | 1006.1 |
| 20260505172119 | 48 | 102 | 5.0 | 13.0 | 0.00 | 0.00 | 0.00 | 40 | 1006.0 |
| 20260505171117 | 48 | 123 | 4.0 | 9.0 | 0.00 | 0.00 | 0.00 | 42 | 1005.9 |
| 20260505170118 | 49 | 114 | 4.0 | 10.0 | 0.00 | 0.00 | 0.00 | 42 | 1005.8 |
| 20260505165119 | 51 | 95 | 5.0 | 12.0 | 0.00 | 0.00 | 0.00 | 34 | 1005.4 |
| 20260505164118 | 51 | 50 | 5.0 | 15.0 | 0.00 | 0.00 | 0.00 | 35 | 1005.3 |
| 20260505163117 | 51 | 87 | 3.0 | 7.0 | 0.00 | 0.00 | 0.00 | 39 | 1005.4 |
| 20260505162139 | 51 | 297 | 4.0 | 10.0 | 0.00 | 0.00 | 0.00 | 36 | 1005.3 |
| 20260505161117 | 52 | 267 | 4.0 | 8.0 | 0.00 | 0.00 | 0.00 | 35 | 1005.2 |
| 20260505160118 | 52 | 355 | 4.0 | 10.0 | 0.00 | 0.00 | 0.00 | 32 | 1005.2 |
| 20260505153117 | 52 | 324 | 5.0 | 11.0 | 0.00 | 0.00 | 0.00 | 36 | 1005.0 |
| 20260505152119 | 51 | 113 | 2.0 | 5.0 | 0.00 | 0.00 | 0.00 | 38 | 1005.1 |
| 20260505151118 | 52 | 350 | 4.0 | 8.0 | 0.00 | 0.00 | 0.00 | 36 | 1005.1 |
| 20260505150119 | 53 | 304 | 6.0 | 13.0 | 0.00 | 0.00 | 0.00 | 35 | 1005.1 |
| 20260505140118 | 53 | 135 | 4.0 | 7.0 | 0.00 | 0.00 | 0.00 | 35 | 1004.8 |
| 20260505130117 | 54 | 64 | 4.0 | 8.0 | 0.00 | 0.00 | 0.00 | 38 | 1004.4 |
| 20260505124117 | 52 | 248 | 3.0 | 10.0 | 0.00 | 0.00 | 0.00 | 45 | 1004.1 |
| 20260505123118 | 53 | 335 | 5.0 | 11.0 | 0.00 | 0.00 | 0.00 | 42 | 1004.0 |
| 20260505122118 | 54 | 88 | 4.0 | 10.0 | 0.00 | 0.00 | 0.00 | 40 | 1003.8 |
| 20260505121118 | 53 | 314 | 5.0 | 13.0 | 0.00 | 0.00 | 0.00 | 39 | 1003.8 |
| 20260505120139 | 52 | 317 | 5.0 | 9.0 | 0.00 | 0.01 | 0.00 | 41 | 1003.7 |
| 20260505115118 | 53 | 306 | 6.0 | 17.0 | 0.00 | 0.01 | 0.00 | 43 | 1003.7 |
| 20260505114118 | 53 | 48 | 4.0 | 10.0 | 0.00 | 0.02 | 0.00 | 41 | 1003.5 |
| 20260505113118 | 52 | 302 | 9.0 | 16.0 | 0.00 | 0.02 | 0.00 | 40 | 1003.3 |
| 20260505112119 | 53 | 322 | 5.0 | 11.0 | 0.00 | 0.03 | 0.00 | 43 | 1003.4 |
| 20260505111117 | 54 | 312 | 4.0 | 8.0 | 0.00 | 0.04 | 0.00 | 44 | 1003.3 |
| 20260505110118 | 53 | 322 | 7.0 | 15.0 | 0.00 | 0.04 | 0.00 | 42 | 1003.0 |
| 20260505102138 | 53 | 310 | 5.0 | 11.0 | 0.00 | 0.07 | 0.00 | 47 | 1002.7 |
| 20260505101117 | 52 | 313 | 7.0 | 17.0 | 0.00 | 0.07 | 0.00 | 53 | 1002.4 |
| 20260505100118 | 49 | 283 | 3.0 | 7.0 | 0.00 | 0.07 | 0.00 | 70 | 1002.5 |
| 20260505095137 | 48 | 35 | 4.0 | 10.0 | 0.00 | 0.08 | 0.00 | 70 | 1002.4 |
| 20260505094118 | 49 | 181 | 3.0 | 8.0 | 0.00 | 0.08 | 0.00 | 70 | 1002.1 |
| 20260505093117 | 49 | 201 | 7.0 | 15.0 | 0.00 | 0.09 | 0.00 | 70 | 1002.2 |
| 20260505092118 | 49 | 208 | 7.0 | 15.0 | 0.00 | 0.09 | 0.00 | 70 | 1002.1 |
| 20260505091117 | 48 | 189 | 5.0 | 10.0 | 0.00 | 0.09 | 0.00 | 73 | 1001.6 |
| 20260505090118 | 47 | 198 | 12.0 | 20.0 | 0.00 | 0.09 | 0.00 | 74 | 1001.8 |
| 20260505085117 | 48 | 201 | 8.0 | 14.0 | 0.00 | 0.09 | 0.00 | 74 | 1001.4 |
| 20260505084137 | 47 | 207 | 12.0 | 17.0 | 0.00 | 0.09 | 0.00 | 75 | 1001.4 |
| 20260505083118 | 47 | 199 | 9.0 | 13.0 | 0.00 | 0.09 | 0.00 | 77 | 1001.3 |
| 20260505082118 | 47 | 201 | 9.0 | 14.0 | 0.00 | 0.09 | 0.00 | 77 | 1001.3 |
| 20260505081117 | 47 | 195 | 5.0 | 12.0 | 0.00 | 0.09 | 0.00 | 75 | 1001.2 |
| 20260505080118 | 48 | 197 | 7.0 | 13.0 | 0.00 | 0.09 | 0.00 | 75 | 1001.3 |
| 20260505075117 | 47 | 195 | 4.0 | 9.0 | 0.00 | 0.09 | 0.00 | 75 | 1001.3 |
| 20260505074159 | 47 | 193 | 6.0 | 11.0 | 0.00 | 0.09 | 0.00 | 74 | 1001.2 |
| 20260505073118 | 47 | 201 | 6.0 | 9.0 | 0.00 | 0.09 | 0.00 | 73 | 1001.1 |